KLM553 EHAM-HECA

Flight info

Callsign KLM553
Flight time N/A
Altitude 35000
Route EDUPO Z739 MISGO/N0478F390 DCT DOJOH DCT DODEN DCT NEGIX DCT DINKU M867 XERUM DCT BAVAX DCT RADIZ DCT NEMEK DCT MAVAR DCT BITLA DCT KPC UN139 KUMBI L612 BLT A16 CVO
Aircraft MD11/H-SDE1E2E3FGHIJ2J3J4J5M1RWXY/LB1D1

Departure

Time 2026-04-27 11:09
Airport Amsterdam Airport Schiphol (EHAM)

Arrival

Time N/A
Airport Cairo International Airport (HECA)
Time Latitude Longitude Altitude Speed Heading
2026-04-27 10:21 52.31320 4.76669 6 ft 0 kts 124°
2026-04-27 10:21 52.31320 4.76666 6 ft 0 kts 123°
2026-04-27 10:53 52.31321 4.76665 6 ft 1 kts 123°
2026-04-27 10:53 52.31328 4.76646 6 ft 3 kts 127°
2026-04-27 10:54 52.31341 4.76621 6 ft 3 kts 135°
2026-04-27 10:54 52.31355 4.76599 6 ft 3 kts 121°
2026-04-27 10:54 52.31361 4.76572 6 ft 3 kts 79°
2026-04-27 10:54 52.31353 4.76546 7 ft 3 kts 43°
2026-04-27 10:55 52.31345 4.76533 7 ft 0 kts 34°
2026-04-27 10:57 52.31359 4.76549 6 ft 6 kts 33°
2026-04-27 10:57 52.31400 4.76565 6 ft 7 kts 347°
2026-04-27 10:58 52.31429 4.76534 6 ft 5 kts 305°
2026-04-27 10:58 52.31472 4.76432 7 ft 15 kts 306°
2026-04-27 10:58 52.31524 4.76297 7 ft 13 kts 300°
2026-04-27 10:58 52.31536 4.76165 7 ft 14 kts 270°
2026-04-27 10:59 52.31533 4.75978 7 ft 19 kts 265°
2026-04-27 10:59 52.31522 4.75751 6 ft 22 kts 265°
2026-04-27 10:59 52.31512 4.75476 6 ft 26 kts 267°
2026-04-27 11:00 52.31502 4.75197 6 ft 13 kts 267°
2026-04-27 11:00 52.31496 4.74972 6 ft 24 kts 267°
2026-04-27 11:01 52.31486 4.74705 6 ft 23 kts 266°
2026-04-27 11:01 52.31477 4.74453 7 ft 22 kts 266°
2026-04-27 11:01 52.31487 4.74316 7 ft 5 kts 312°
2026-04-27 11:01 52.31545 4.74299 7 ft 15 kts
2026-04-27 11:02 52.31686 4.74312 7 ft 22 kts
2026-04-27 11:02 52.31837 4.74325 6 ft 21 kts
2026-04-27 11:02 52.31976 4.74336 6 ft 18 kts
2026-04-27 11:02 52.32020 4.74307 6 ft 3 kts 304°
2026-04-27 11:03 52.32030 4.74228 6 ft 11 kts 274°
2026-04-27 11:03 52.32037 4.74062 6 ft 18 kts 273°
2026-04-27 11:03 52.32045 4.73828 7 ft 23 kts 273°
2026-04-27 11:03 52.32053 4.73566 7 ft 23 kts 272°
2026-04-27 11:04 52.32099 4.73344 7 ft 20 kts 315°
2026-04-27 11:04 52.32214 4.73179 7 ft 25 kts 319°
2026-04-27 11:04 52.32358 4.72976 7 ft 29 kts 319°
2026-04-27 11:04 52.32505 4.72769 7 ft 27 kts 319°
2026-04-27 11:05 52.32645 4.72574 7 ft 25 kts 318°
2026-04-27 11:05 52.32761 4.72368 7 ft 24 kts 310°
2026-04-27 11:05 52.32867 4.72171 8 ft 22 kts 311°
2026-04-27 11:05 52.32976 4.71969 7 ft 26 kts 311°
2026-04-27 11:06 52.33107 4.71728 8 ft 29 kts 311°
2026-04-27 11:06 52.33137 4.71515 7 ft 18 kts 244°
2026-04-27 11:06 52.33047 4.71377 7 ft 22 kts 221°
2026-04-27 11:06 52.32924 4.71201 6 ft 23 kts 221°
2026-04-27 11:07 52.32865 4.71071 6 ft 4 kts 256°
2026-04-27 11:07 52.32865 4.71070 6 ft 0 kts 258°
2026-04-27 11:07 52.32865 4.71068 6 ft 1 kts 258°
2026-04-27 11:07 52.32863 4.71017 7 ft 7 kts 271°
2026-04-27 11:08 52.32870 4.70927 5 ft 5 kts 296°
2026-04-27 11:08 52.32905 4.70901 7 ft 9 kts 351°
2026-04-27 11:08 52.32935 4.70900 5 ft 0 kts
2026-04-27 11:08 52.33015 4.70908 4 ft 37 kts
2026-04-27 11:09 52.33616 4.70963 8 ft 132 kts
2026-04-27 11:09 52.34751 4.71059 298 ft 177 kts
2026-04-27 11:09 52.35948 4.71162 1513 ft 166 kts
2026-04-27 11:09 52.37090 4.71290 2791 ft 168 kts
2026-04-27 11:10 52.38303 4.71414 3615 ft 191 kts
2026-04-27 11:10 52.39770 4.71561 3774 ft 238 kts
2026-04-27 11:10 52.41561 4.71835 4581 ft 253 kts 14°
2026-04-27 11:10 52.43206 4.72893 5828 ft 257 kts 25°
2026-04-27 11:11 52.44785 4.74255 6949 ft 263 kts 28°
2026-04-27 11:11 52.46374 4.75814 7972 ft 270 kts 35°
2026-04-27 11:11 52.47661 4.78090 9005 ft 278 kts 59°
2026-04-27 11:11 52.48284 4.81118 10001 ft 286 kts 79°
2026-04-27 11:12 52.48533 4.84437 10639 ft 307 kts 84°
2026-04-27 11:12 52.48607 4.88133 10775 ft 342 kts 95°
2026-04-27 11:12 52.47903 4.91978 11192 ft 362 kts 121°
2026-04-27 11:12 52.46287 4.95161 12082 ft 367 kts 140°
2026-04-27 11:13 52.44230 4.97707 12957 ft 373 kts 148°
2026-04-27 11:13 52.42039 5.00037 13836 ft 377 kts 149°
2026-04-27 11:13 52.39820 5.02361 14707 ft 381 kts 149°
2026-04-27 11:13 52.37579 5.04752 15462 ft 387 kts 149°
2026-04-27 11:14 52.35354 5.07200 16177 ft 394 kts 148°
2026-04-27 11:14 52.33139 5.09989 16894 ft 401 kts 140°
2026-04-27 11:14 52.31165 5.13182 17587 ft 408 kts 134°
2026-04-27 11:14 52.29263 5.16657 18262 ft 413 kts 132°
2026-04-27 11:15 52.27367 5.20248 18820 ft 421 kts 131°
2026-04-27 11:15 52.25444 5.23888 19459 ft 424 kts 131°
2026-04-27 11:15 52.23585 5.27662 20030 ft 429 kts 128°
2026-04-27 11:15 52.21811 5.31617 20606 ft 434 kts 127°
2026-04-27 11:16 52.20070 5.35657 21194 ft 438 kts 126°
2026-04-27 11:16 52.18322 5.39759 21782 ft 442 kts 126°
2026-04-27 11:16 52.16556 5.43894 22404 ft 447 kts 126°
2026-04-27 11:16 52.14764 5.48061 22935 ft 453 kts 127°
2026-04-27 11:17 52.12941 5.52275 23525 ft 458 kts 127°
2026-04-27 11:17 52.11087 5.56533 24100 ft 462 kts 127°
2026-04-27 11:17 52.09213 5.60814 24644 ft 466 kts 128°
2026-04-27 11:17 52.07315 5.65126 25195 ft 470 kts 128°
2026-04-27 11:18 52.05339 5.69278 25736 ft 472 kts 131°
2026-04-27 11:18 52.03219 5.73387 26305 ft 476 kts 133°
2026-04-27 11:18 52.01037 5.77456 26881 ft 480 kts 134°
2026-04-27 11:18 51.98825 5.81531 27438 ft 483 kts 135°
2026-04-27 11:19 51.96588 5.85638 27978 ft 487 kts 134°
2026-04-27 11:19 51.94338 5.89780 28511 ft 491 kts 134°
2026-04-27 11:19 51.92076 5.93965 29044 ft 496 kts 134°
2026-04-27 11:19 51.89804 5.98185 29571 ft 500 kts 134°
2026-04-27 11:20 51.87507 6.02458 30047 ft 504 kts 134°
2026-04-27 11:20 51.85193 6.06754 30468 ft 508 kts 134°
2026-04-27 11:20 51.82855 6.11069 30882 ft 511 kts 134°
2026-04-27 11:20 51.80505 6.15383 31332 ft 512 kts 135°
2026-04-27 11:21 51.78153 6.19692 31867 ft 511 kts 135°
2026-04-27 11:21 51.75799 6.23989 32401 ft 509 kts 135°
2026-04-27 11:21 51.73453 6.28261 32926 ft 507 kts 135°
2026-04-27 11:21 51.71149 6.32455 33422 ft 506 kts 135°
2026-04-27 11:22 51.68819 6.36693 33941 ft 505 kts 135°
2026-04-27 11:22 51.66491 6.40920 34338 ft 503 kts 135°
2026-04-27 11:22 51.64172 6.45128 34688 ft 502 kts 135°
2026-04-27 11:22 51.61852 6.49326 35023 ft 502 kts 135°
2026-04-27 11:23 51.59519 6.53539 35215 ft 502 kts 135°
2026-04-27 11:23 51.57190 6.57731 35254 ft 502 kts 135°
2026-04-27 11:23 51.52544 6.66095 35264 ft 501 kts 135°
2026-04-27 11:24 51.47896 6.74462 35271 ft 501 kts 135°
2026-04-27 11:24 51.43286 6.82793 35267 ft 502 kts 135°
2026-04-27 11:25 51.38442 6.90813 35258 ft 500 kts 139°
2026-04-27 11:25 51.33437 6.98553 35253 ft 500 kts 139°
2026-04-27 11:26 51.28428 7.06257 35260 ft 500 kts 139°
2026-04-27 11:26 51.23437 7.13972 35256 ft 500 kts 139°
2026-04-27 11:27 51.18428 7.21714 35250 ft 501 kts 139°
2026-04-27 11:27 51.13411 7.29450 35243 ft 501 kts 139°
2026-04-27 11:28 51.08396 7.37159 35245 ft 501 kts 139°
2026-04-27 11:28 51.03406 7.44796 35243 ft 501 kts 139°
2026-04-27 11:29 50.98379 7.52468 35249 ft 501 kts 139°
2026-04-27 11:29 50.93355 7.60114 35231 ft 501 kts 139°
2026-04-27 11:30 50.88304 7.67765 35247 ft 502 kts 139°
2026-04-27 11:30 50.83245 7.75369 35243 ft 502 kts 140°
2026-04-27 11:31 50.78149 7.82913 35228 ft 501 kts 140°
2026-04-27 11:31 50.73066 7.90459 35245 ft 501 kts 140°
2026-04-27 11:32 50.68018 7.97967 35247 ft 502 kts 140°
2026-04-27 11:32 50.62923 8.05526 35238 ft 503 kts 140°
2026-04-27 11:33 50.58029 8.13409 35232 ft 505 kts 133°
2026-04-27 11:33 50.54323 8.20629 35241 ft 506 kts 130°
2026-04-27 11:34 50.50039 8.29329 35236 ft 506 kts 130°
2026-04-27 11:34 50.45688 8.38022 35247 ft 506 kts 131°
2026-04-27 11:35 50.41271 8.46673 35240 ft 507 kts 132°
2026-04-27 11:35 50.36616 8.54947 35236 ft 505 kts 136°
2026-04-27 11:36 50.31808 8.62977 35222 ft 505 kts 136°
2026-04-27 11:36 50.26992 8.70997 35233 ft 505 kts 136°
2026-04-27 11:37 50.22204 8.79014 35235 ft 505 kts 136°
2026-04-27 11:37 50.17451 8.86972 35231 ft 505 kts 136°
2026-04-27 11:38 50.12658 8.94973 35230 ft 504 kts 136°
2026-04-27 11:38 50.07856 9.02960 35231 ft 505 kts 136°
2026-04-27 11:39 50.03046 9.10933 35222 ft 504 kts 136°
2026-04-27 11:39 49.98230 9.18891 35225 ft 505 kts 136°
2026-04-27 11:40 49.93397 9.26849 35222 ft 506 kts 136°
2026-04-27 11:40 49.88571 9.34778 35222 ft 506 kts 136°
2026-04-27 11:41 49.83765 9.42643 35221 ft 506 kts 136°
2026-04-27 11:41 49.78897 9.50510 35216 ft 505 kts 136°
2026-04-27 11:42 49.74038 9.58368 35223 ft 506 kts 136°
2026-04-27 11:42 49.69183 9.66232 35220 ft 506 kts 136°
2026-04-27 11:43 49.64312 9.74105 35226 ft 506 kts 136°
2026-04-27 11:43 49.59478 9.81908 35230 ft 506 kts 136°
2026-04-27 11:44 49.54594 9.89762 35615 ft 508 kts 136°
2026-04-27 11:44 49.52142 9.93689 35946 ft 507 kts 136°
2026-04-27 11:44 49.49690 9.97613 36259 ft 507 kts 136°
2026-04-27 11:45 49.47248 10.01517 36580 ft 507 kts 136°
2026-04-27 11:45 49.45625 10.04107 36780 ft 507 kts 136°
2026-04-27 11:45 49.42345 10.09332 37208 ft 507 kts 136°